SL-16 DEB, 39903

Orbit data source: Space-Track

SL-16 DEB, 39903 is space debris in LEO originally from a launch on Fri, 26 Mar 1993 UTC launched from the Tyuratam Missile And Space Complex (TTMTR). Debris objects in space refer to the collection of defunct objects orbiting the Earth. Examples of debris include non-operational satellites, rocket bodies, and fragments generated from explosions, collisions, or faulty payload assembly.

Loading next visibility...
Identifier
39903, 1993-016CD
Orbit
LEO
Country
Flag of CISCIS
Related business
Manufacturer
Unknown
Mission
Spacecraft
Bus & Motor
Unknown
Mass
Unknown
Launch date (UTC)
1993-03-26 (33 years ago)
Launch vehicle
Unknown
Launch site
Tyuratam Missile And Space Complex (TTMTR)
Object type
Payload
Rocket body
Debris
Shape & HBR
Unknown shape, 0.1 m
Radar Cross Section
Small (<0.1 m²)

Expand to show TLE details & history
Last TLE update: 1 day ago

TLE from 1 day ago
0 SL-16 DEB
1 39903U 93016CD  25340.24914806  .00000450  00000-0  38908-3 0  9991
2 39903  70.9900 157.7814 0132700 112.1711  60.9234 13.87616673583649
Epoch: 2025-12-06T05:58Z
TLE epoch observation values (Epoch: 2025-12-06T05:58:46.392Z)
Latitude
5.18783°
Longitude
171.02541°
Altitude
892.652 km
Speed
7.43 km/s
True Right ascension
22h 23m 59s
True Declination
5° 09' 27"
Sunlit
Object was in daylight at epoch
Visualization orbit readout
Latitude
Unknown
Longitude
Unknown
Altitude
Unknown
Speed
Unknown
Apparent Right ascension
Unknown
Apparent Declination
Unknown
Sunlit
N/A
Visualization observer readout
Local Sidereal Time
15:59:26
Azimuth
Unknown
Elevation
Unknown
Doppler factor
Unknown
Orbital elements
Apogee altitude
1,031.992 km
Perigee altitude
837.903 km
Semi-major axis
7,313.084 km
Eccentricity
0.01327
Inclination
70.99°
RAAN
157.7814°
Arg. of periapsis
112.1711°
True anomaly
62.26306°
Mean anomaly
60.9234°
Eccentric anomaly
61.59216°
Mean motion
3.4705 °/min
Orbital period
103.73 mins
BSTAR
0.00038908
Loading maneuver chart data...
Computing Atmospheric mass density...
Loading historical data...
Loading historical data...
Loading historical data...
Loading historical data...
Loading historical data...
Loading historical data...
Loading historical data...

Documentation

Showing up to 5 results
|